User: anonymous   Login
Location: Caltech
(34.1382°N, 118.1253°W)
Time: 01:23:12
(UTC-08:00)
Language:

Gbstr 26 Del rocket - Orbit

View from above orbital plane
View from above orbital plane
View from above satellite
View from above satellite

Ground track
Ground track

The orbit data is extracted from the following two-line orbital elements,

1 25876U 99041E   17057.15321934  .00000097  00000-0  59128-4 0  9994
2 25876  51.7644  34.9109 0532245  64.4642 301.0331 14.03988772899028
Epoch (UTC): 26 February 2017 03:40:38
Eccentricity: 0.0532245
inclination: 51.7644°
perigee height: 494 km
apogee height: 1266 km
right ascension of ascending node: 34.9109°
argument of perigee: 64.4642°
revolutions per day: 14.03988772
mean anomaly at epoch: 301.0331°
orbit number at epoch: 89902

The dashed part of the orbit path shows where the satellite is in the earth's shadow,  

DLR